AirNav   ATP
 
 314 users online  

04M Calhoun County Airport
Pittsboro, Mississippi, USA


FAA INFORMATION EFFECTIVE 04 JANUARY 2018

Location

FAA Identifier: 04M
Lat/Long: 33-55-48.3000N / 089-20-35.8000W
33-55.805000N / 089-20.596667W
33.9300833 / -89.3432778
(estimated)
Elevation: 387 ft. / 118.0 m (surveyed)
Variation: 02E (1985)
From city: 1 mile SW of PITTSBORO, MS
Time zone: UTC -6 (UTC -5 during Daylight Saving Time)
Zip code: 38951

Airport Operations

Airport use: Open to the public
Activation date: 11/1972
Control tower: no
ARTCC: MEMPHIS CENTER
FSS: GREENWOOD FLIGHT SERVICE STATION
NOTAMs facility: GWO (NOTAM-D service available)
Attendance: UNATNDD
Wind indicator: lighted
Segmented circle: yes
Lights: MIRL RWY 15/33 ON SS-SR; ACTIVATE PAPI RWY 15/33 - CTAF.
Beacon: white-green (lighted land airport)
Operates sunset to sunrise.

Airport Communications

CTAF: 122.9

Nearby radio navigation aids

VOR radial/distance  VOR name  Freq  Var
OTBr233/32.4TUPELO VOR/DME109.8004E

Airport Services

Fuel available: 100LL
FUEL 24 HR CREDIT CARD SVC AVBL.
Parking: tiedowns
Airframe service: NONE
Powerplant service: NONE
Bottled oxygen: NONE
Bulk oxygen: NONE

Runway Information

Runway 15/33

Dimensions: 3200 x 60 ft. / 975 x 18 m
Surface: asphalt, in good condition
Weight bearing capacity: 
Single wheel: 15.0
Runway edge lights: medium intensity
RUNWAY 15  RUNWAY 33
Latitude: 33-56.029182N33-55.579535N
Longitude: 089-20.761862W089-20.430445W
Elevation: 387.0 ft.367.0 ft.
Gradient: 0.7%0.7%
Traffic pattern: leftleft
Runway heading: 146 magnetic, 148 true326 magnetic, 328 true
Markings: basic, in good conditionbasic, in good condition
Visual slope indicator: 4-light PAPI on left (3.00 degrees glide path)4-light PAPI on left (3.00 degrees glide path)
Obstructions: 71 ft. trees, 1640 ft. from runway, 20:1 slope to clear32 ft. trees, 900 ft. from runway, 21:1 slope to clear

Airport Ownership and Management from official FAA records

Ownership: Publicly-owned
Owner: CALHOUN COUNTY
BOX 36
PITTSBORO, MS 38951
Phone 662-983-4537
Manager: LYNN HAVENS
P.O. BOX 8
PITTSBORO, MS 38951
Phone (662) 414-0975
BARNEY WADE, CALHOUN COUNTY BOARD OF SUPERVISORS CHAIRMAN

Airport Operational Statistics

Aircraft based on the field: 10
Single engine airplanes: 10
    
Aircraft operations: avg 96/week *
93% local general aviation
7% transient general aviation
* for 12-month period ending 12 January 2017

Instrument Procedures

There are no published instrument procedures at 04M.

Some nearby airports with instrument procedures:

KGNF - Grenada Municipal Airport (23 nm W)
KUOX - University-Oxford Airport (29 nm N)
5A4 - Okolona Municipal Airport-Richard Stovall Field (31 nm E)
5A6 - Winona-Montgomery County Airport (34 nm SW)
KTUP - Tupelo Regional Airport (35 nm NE)
 
Loc | Ops | Rwys | IFR | FBO | Links
Com | Nav | Svcs | Stats | Notes


 
Area around 04M (Calhoun County Airport)
 
Road maps at: MapQuest Bing Google
 
Aerial photo
WARNING: Photo may not be current or correct
Aerial photo of 04M (Calhoun County Airport)
Do you have a better or more recent aerial photo of Calhoun County Airport that you would like to share? If so, please send us your photo.

 
Sectional chart

 
Airport distance calculator
Flying to Calhoun County Airport? Find the distance to fly.

From to 04M

Sunrise and sunset
Times for 23-Jan-2018
 Local
(UTC-6)
 Zulu
(UTC)
Morning civil twilight06:3412:34
Sunrise07:0113:01
Sunset17:1823:18
Evening civil twilight17:4523:45

Current date and time
Zulu (UTC)  23-Jan-2018 07:30:46
Local (UTC-6)  23-Jan-2018 01:30:46
 
METAR
KUOX 
29nm N 
222215Z AUTO 23012G19KT 200V260 10SM CLR 16/M02 A2980 RMK AO2
K5A6 
34nm SW 
230715Z AUTO 24005KT 10SM CLR 06/M01 A2998 RMK AO2 T00611008
KTUP 
35nm NE 
230653Z AUTO 21004KT 10SM CLR 08/M02 A2993 RMK AO2 SLP134 T00781022
KPMU 
38nm NW 
230715Z AUTO 23006KT 10SM CLR 06/M02 A2994 RMK AO2 T00621018
KSTF 
39nm SE 
230715Z AUTO 23003KT 10SM CLR 07/M01 A2998 RMK AO2
KM40 
43nm E 
230715Z AUTO VRB06G12KT 10SM 08/02 A2997 RMK AO2
KGWO 
45nm SW 
230653Z AUTO 25007KT 10SM CLR 08/00 A2999 RMK AO2 SLP154 T00830000
TAF
KTUP 
35nm NE 
230520Z 2306/2406 22007KT P6SM FEW060 FM230700 25005KT P6SM FEW060 FM231700 31011G17KT P6SM BKN050 FM240000 35003KT P6SM SKC
NOTAMs
Click for the latest NOTAMs
NOTAMs are issued by the DoD/FAA and will open in a separate window not controlled by AirNav.

 

 
 

FBO, Fuel Providers, and Aircraft Ground Support

  
 Business Name 
 
 Contact 
 
 Services / Description 
 
Fuel Prices
 
Comments
  
Calhoun County Airport Board 662-412-3126
no information available

If you are affiliated with Calhoun County Airport Board and would like to show here your services, contact info, web link, logo, and more, click here
100LL
SS $3.40 
 Updated 18-Jan-2018
 
   write
SS=Self service
Update Fuel Prices
 

Would you like to see your business listed on this page?

 If your business provides an interesting product or service to pilots, flight crews, aircraft, or users of the Calhoun County Airport, you should consider listing it here.  To start the listing process, click on the button below
 
Add a business
 

Other Pages about Calhoun County Airport

Update a link
 
Copyright © AirNav, LLC. All rights reserved. Privacy Policy  Contact